Wind_Speed
45 44 43 43 43 42 41 39 36 35 34 33 33 32 31 31 30 29 28 29 29 29 28 26 26 25 25 25 24 24 24 24 24 23 23 23 23 23 22 21 21 20 19 18 18 18 18 18 18 17 16 16 15 14 14 14 16 17 18 19 20 21 22 24 28 32 31 28 26 26 25 26 25 24 23 24 23 24 25 25 25 25 25 25 26
46 45 44 43 43 42 40 39 38 36 35 34 34 33 32 31 30 30 29 30 30 30 29 28 27 26 26 26 25 24 25 25 25 24 24 24 24 24 23 23 22 21 20 20 19 19 19 20 19 18 18 18 18 17 17 16 17 17 18 19 21 21 23 25 28 32 33 31 29 28 28 28 28 27 26 27 26 27 28 28 28 29 29 29 29
46 45 45 44 42 41 40 39 39 37 36 35 34 33 32 31 31 31 30 29 29 29 29 29 28 28 27 26 25 25 25 26 26 25 24 24 24 24 24 23 23 22 21 21 20 20 20 21 20 19 19 20 19 19 19 19 19 19 19 20 21 21 22 24 27 30 33 33 31 29 28 28 29 28 27 28 28 29 30 30 31 32 32 32 32
46 46 45 44 42 41 41 40 39 39 38 37 35 33 32 31 31 31 30 30 30 29 28 28 29 29 28 27 27 26 26 26 27 26 26 25 24 24 24 24 23 23 22 21 21 21 21 22 21 20 20 21 21 20 21 21 21 21 22 22 22 23 23 24 27 29 31 34 33 30 29 30 30 29 29 30 30 30 31 32 32 33 34 34 35
47 47 45 44 43 43 42 40 40 40 39 37 35 33 32 32 31 31 31 31 30 30 29 28 29 31 30 29 28 28 28 28 28 28 27 27 26 25 25 25 25 24 24 23 23 23 23 23 22 21 22 23 22 22 21 22 22 22 23 23 23 24 24 26 27 29 31 34 35 33 32 32 32 31 30 32 33 33 33 33 33 34 34 34 36
48 47 46 45 45 43 42 41 40 39 39 37 36 34 33 33 31 31 31 31 31 30 30 29 30 31 31 30 29 30 29 29 29 29 29 29 28 27 27 27 27 27 26 25 25 25 24 24 23 23 24 24 23 22 22 22 22 23 23 23 24 25 26 26 27 29 32 34 36 36 35 34 35 34 32 33 35 36 35 35 35 35 35 36 36
49 48 46 46 45 44 42 41 39 39 38 36 35 34 34 33 32 31 31 31 31 31 31 30 30 30 31 31 31 31 31 31 31 30 30 30 29 29 28 28 28 28 28 27 27 27 27 26 26 25 25 24 23 22 22 22 23 24 24 24 25 26 27 28 29 31 33 35 36 38 38 37 37 36 35 35 37 38 37 37 38 37 36 37 37
49 48 47 47 46 44 42 40 38 37 37 36 35 34 33 32 31 31 31 31 31 31 31 31 31 31 31 32 32 32 32 33 33 32 32 31 30 30 29 29 29 29 29 29 29 29 28 28 28 27 27 26 25 24 24 24 25 25 25 25 27 29 30 30 31 32 34 36 37 38 39 40 39 39 38 38 39 39 38 39 41 41 39 39 40
49 48 48 47 46 44 41 40 39 38 37 37 35 34 32 31 30 30 30 31 31 31 31 31 31 31 32 32 32 33 33 34 34 33 33 32 32 31 31 30 30 30 30 30 29 29 28 28 28 28 28 27 27 27 26 26 27 27 26 27 29 30 31 32 32 33 34 36 37 38 39 41 40 39 39 38 39 39 39 41 43 42 41 42 42
48 47 47 47 45 43 42 41 41 40 39 38 36 33 32 30 30 30 30 30 31 31 31 31 31 32 32 32 33 33 34 35 34 33 33 33 32 32 32 31 31 31 30 30 30 29 29 28 28 28 28 28 27 27 27 27 27 27 27 28 29 30 31 32 32 32 34 36 37 37 40 42 40 39 40 40 39 39 39 40 41 41 42 43 43
48 47 46 45 44 43 43 42 42 41 39 38 36 34 33 32 31 30 30 31 31 31 31 31 32 32 32 32 33 34 35 35 34 33 33 32 32 32 32 31 31 31 31 31 31 30 30 29 29 28 28 28 27 27 27 26 26 26 26 27 27 28 30 31 31 32 33 36 37 38 40 42 41 39 40 40 39 39 39 40 42 42 43 45 47
47 46 45 44 44 43 43 42 41 40 39 38 36 36 35 34 33 32 31 31 31 31 32 32 32 32 32 32 32 33 34 34 34 33 32 32 32 31 31 31 31 31 31 31 31 31 31 30 29 29 28 27 27 27 26 26 25 25 25 25 25 26 27 28 30 31 33 35 38 39 40 42 41 40 39 39 39 41 43 44 43 43 44 46 48
46 45 44 43 43 42 42 41 40 39 38 37 37 36 36 35 34 33 32 31 31 32 33 33 33 32 33 33 33 33 34 33 33 33 32 32 31 31 31 32 32 32 32 32 32 31 31 30 29 29 28 27 27 26 26 25 25 25 25 25 25 25 25 27 28 30 32 35 39 42 40 40 44 44 41 41 43 45 47 45 44 46 48 48 48
45 44 44 43 43 42 42 41 40 39 38 37 37 37 36 36 35 34 33 32 33 33 33 33 33 33 33 34 33 33 34 33 32 32 32 31 31 31 31 31 32 32 32 32 32 31 30 30 30 28 27 27 27 26 25 25 25 25 26 26 25 25 26 27 27 29 32 35 39 43 41 41 44 45 44 45 49 50 48 45 46 50 50 49 51
44 43 43 43 42 42 42 41 40 39 38 38 38 37 37 37 36 35 35 34 33 32 32 33 33 34 34 34 34 35 34 33 32 32 31 31 31 31 31 31 31 32 31 31 31 30 30 30 30 28 27 27 26 25 24 24 25 27 28 28 28 28 29 29 27 29 32 34 38 42 42 40 42 43 44 47 51 51 48 45 47 50 49 50 54
42 43 43 43 42 42 42 41 41 40 39 39 39 38 38 37 36 35 35 34 33 32 32 32 32 33 33 34 34 35 34 33 32 32 31 31 31 31 31 31 31 31 30 30 30 29 29 29 29 28 27 26 24 23 23 24 26 28 30 31 31 31 33 32 30 30 32 34 37 38 38 39 39 42 44 45 47 48 48 48 49 48 50 52 54
42 42 42 42 42 41 41 41 40 39 39 39 39 38 37 36 35 35 35 35 34 34 33 32 32 32 32 33 34 34 34 33 32 32 31 31 31 31 30 30 30 30 29 28 28 28 27 27 27 27 27 25 23 21 22 24 28 30 32 33 34 35 36 35 32 32 32 33 35 36 38 39 40 42 44 43 43 42 44 49 49 47 49 52 53
41 41 41 40 40 39 39 39 38 38 38 38 37 36 35 35 34 34 35 35 34 33 32 31 31 32 32 32 32 33 33 32 31 31 30 30 30 30 29 29 29 28 28 27 26 26 26 25 25 26 25 23 21 21 22 26 30 31 32 34 36 38 37 35 33 33 34 35 37 39 41 43 43 44 44 43 42 40 41 47 48 46 49 53 53
38 38 37 37 37 37 36 36 36 36 36 35 34 33 32 32 32 32 33 33 31 30 30 30 31 30 30 30 30 31 31 30 30 30 29 28 28 28 28 28 28 27 26 26 25 24 24 23 23 23 24 22 21 22 24 27 29 30 31 34 37 37 34 33 34 34 34 36 39 39 40 41 42 44 46 46 47 46 44 47 49 46 47 50 51
34 33 33 33 34 35 35 34 34 34 33 32 30 30 30 31 31 32 32 31 30 29 29 30 29 28 28 27 27 27 28 28 28 27 26 26 26 26 26 27 26 25 24 23 23 22 22 21 20 21 21 22 23 23 24 26 28 29 30 32 34 33 32 33 36 37 35 34 34 35 37 40 42 45 47 48 47 46 46 47 47 45 43 46 49
31 31 31 32 33 33 33 33 33 32 31 29 29 30 30 31 31 31 30 30 29 29 29 28 28 27 26 25 25 25 25 25 24 24 23 23 23 23 25 25 23 22 21 22 22 22 21 20 19 19 20 22 22 23 23 25 26 27 28 29 30 31 32 34 35 35 34 33 34 36 38 40 42 43 44 45 44 43 42 42 41 40 40 43 45
29 29 31 32 33 34 34 33 32 32 31 31 31 31 31 31 31 31 30 30 30 29 28 28 28 27 26 25 25 23 23 23 23 22 21 21 21 21 22 21 19 19 21 21 21 20 19 18 18 19 20 21 22 22 23 24 25 26 27 28 29 29 30 30 30 32 34 34 35 37 38 38 39 40 40 41 40 39 39 40 40 40 41 42 42
27 28 29 31 32 34 34 33 32 32 32 32 32 31 31 32 32 32 31 31 31 30 29 29 28 28 26 26 25 23 22 22 21 20 20 19 19 19 20 19 17 18 20 21 19 19 18 19 19 20 20 21 22 23 24 24 25 26 26 27 27 26 25 27 29 31 32 32 33 33 33 32 33 34 36 38 38 39 40 42 43 43 44 45 45
26 27 27 29 30 32 32 32 31 31 31 32 32 32 32 33 33 33 32 32 32 32 31 30 30 29 28 26 25 23 21 20 20 20 19 19 19 18 18 17 16 17 19 19 18 19 20 20 20 20 21 23 23 24 25 26 26 26 25 23 22 23 24 26 27 28 28 27 27 28 28 28 30 32 34 37 39 41 41 42 43 43 44 46 47
26 26 26 27 28 28 30 31 31 31 31 33 33 33 33 34 34 34 34 34 34 33 32 31 31 29 28 26 24 22 21 20 20 20 19 19 18 18 17 16 16 17 19 19 19 20 21 21 21 22 22 23 24 25 26 26 25 23 21 20 21 22 23 24 23 23 23 23 24 26 27 29 30 31 33 35 37 38 39 40 42 42 43 46 47
24 24 25 25 24 25 27 29 30 31 32 33 33 33 33 34 34 34 34 34 34 33 32 32 31 30 29 26 24 22 21 21 21 20 19 19 18 17 17 16 16 18 19 20 20 20 21 21 21 21 22 23 25 26 25 23 20 18 18 19 20 20 20 20 20 21 21 22 24 26 27 28 29 29 30 33 35 36 39 42 44 44 45 48 50
19 19 19 20 20 21 23 25 27 29 30 32 33 33 33 34 35 35 36 35 35 34 33 33 32 31 29 26 24 23 22 22 21 20 19 18 17 16 16 16 17 18 19 20 20 20 20 21 21 22 24 25 25 23 20 17 16 16 17 17 17 17 18 18 19 19 21 22 23 24 25 26 28 29 30 32 34 36 38 42 44 46 47 48 51
17 16 16 16 17 18 20 21 22 24 26 28 31 32 32 34 35 35 35 35 34 33 33 32 31 29 27 25 24 24 24 22 21 18 17 16 15 15 16 16 17 17 18 19 20 21 22 24 25 25 25 24 20 17 15 14 14 15 15 15 15 16 16 16 17 18 20 21 22 23 25 26 28 29 30 32 34 35 37 40 42 45 47 47 50
18 18 18 18 18 18 19 20 21 22 24 26 29 30 31 32 33 33 33 32 32 31 31 30 28 26 25 25 24 24 23 20 16 14 14 14 15 15 16 16 16 17 18 19 21 23 25 25 24 23 20 17 15 13 13 13 14 14 14 13 13 14 14 15 16 17 17 19 21 23 25 27 28 29 31 32 33 34 36 40 43 46 47 47 47
16 17 18 19 20 20 20 20 22 23 25 26 27 28 28 29 30 30 30 30 30 29 28 27 25 24 24 23 21 20 17 13 11 12 14 15 16 16 16 16 16 17 19 20 21 22 21 20 18 17 16 15 13 12 12 12 13 13 12 12 12 13 13 14 14 15 16 18 20 22 25 27 29 30 32 33 34 35 37 40 43 46 48 47 45
14 15 15 17 19 20 21 21 22 24 25 27 27 27 26 26 27 27 27 26 26 27 27 25 24 22 22 20 18 17 14 12 13 14 15 16 16 17 18 18 18 18 19 19 19 18 17 17 17 16 14 12 11 11 12 12 12 11 10 10 11 11 11 12 13 14 16 17 19 21 24 27 29 31 32 33 35 37 39 41 43 44 45 45 43
12 13 13 14 15 17 19 20 21 22 24 25 27 27 26 25 25 25 24 23 24 24 25 24 22 20 19 17 17 16 15 14 16 17 18 18 17 18 18 18 18 18 18 18 18 18 17 17 15 13 11 11 11 12 12 12 11 9 9 9 9 9 10 11 12 13 16 18 19 21 23 26 28 30 32 33 35 37 39 41 43 44 43 42 42
10 11 11 11 11 12 13 15 16 18 19 22 24 25 24 23 22 22 21 21 21 22 23 22 20 19 18 17 17 17 17 17 17 19 19 19 18 18 19 20 20 21 20 19 19 18 16 15 13 12 11 11 11 11 11 10 9 8 8 7 6 7 9 10 11 13 15 17 18 20 23 25 27 28 30 32 34 36 38 40 42 42 41 40 40
9 9 9 9 8 7 7 8 10 12 14 17 19 21 22 21 20 19 19 19 19 20 21 20 20 19 19 19 19 19 19 19 18 18 19 19 19 20 21 22 22 20 18 17 16 15 14 14 12 11 10 10 10 10 9 8 8 7 6 5 5 6 8 9 10 12 14 16 17 19 22 24 27 28 29 30 32 33 35 38 38 38 37 35 35
8 9 9 8 7 6 5 4 5 8 11 14 17 19 20 20 20 19 18 18 18 18 18 19 20 20 21 21 21 21 21 20 19 19 21 22 23 23 23 22 19 17 16 15 14 13 12 11 10 9 9 9 9 9 8 7 7 5 4 4 5 5 6 8 9 11 13 15 16 18 20 23 25 27 27 28 29 31 33 35 34 33 32 31 32
7 8 8 8 7 6 5 4 4 6 9 12 15 17 19 19 19 19 18 17 17 16 17 18 20 21 22 23 23 23 22 20 20 21 22 24 23 22 20 18 15 14 14 13 12 12 11 10 9 9 9 8 8 7 7 7 6 4 4 4 4 5 6 7 8 9 11 14 15 17 19 21 24 24 24 24 25 27 29 31 30 29 28 29 32
6 7 8 8 7 7 6 5 5 6 8 11 14 16 18 19 18 18 18 18 17 17 18 19 20 21 23 23 23 23 21 20 21 22 21 20 18 15 14 13 13 12 12 10 11 11 11 10 9 8 7 7 8 8 7 6 4 4 4 4 4 5 6 7 8 8 10 12 14 15 17 19 22 22 21 21 22 23 25 26 26 26 27 28 30
5 5 6 6 6 6 6 6 7 8 10 12 14 16 17 18 19 18 18 18 18 19 19 18 18 19 20 21 22 23 22 22 23 23 20 17 15 14 13 14 14 12 11 10 11 11 10 10 9 8 8 8 8 8 6 4 3 3 4 4 5 5 6 7 8 8 9 10 11 13 15 17 18 19 19 19 19 19 20 21 22 22 23 25 26
5 4 3 3 3 3 3 5 7 9 11 13 16 18 19 19 20 20 19 19 20 20 18 17 18 19 20 21 23 24 24 24 24 22 19 17 16 14 13 12 12 10 10 12 12 12 10 9 9 8 8 8 7 5 4 3 3 3 4 4 5 6 7 7 8 8 8 8 9 11 12 13 15 16 16 16 16 16 17 18 19 19 20 21 22
7 5 4 2 2 1 2 5 7 10 12 15 17 18 19 20 21 21 21 20 21 21 20 20 21 21 21 22 23 23 22 22 21 19 18 16 15 13 12 12 12 12 13 13 13 11 10 9 8 7 7 6 4 4 4 3 3 3 4 4 5 7 8 8 8 8 7 7 8 10 10 11 11 12 13 14 14 14 16 17 18 17 16 16 17
8 7 5 3 1 1 2 4 8 11 14 16 18 18 20 21 23 25 26 25 25 25 24 24 24 23 22 21 20 18 17 17 18 17 16 16 15 15 15 15 15 14 14 13 11 10 8 8 7 6 5 5 4 4 4 3 3 3 3 4 5 7 7 7 7 7 6 7 8 8 9 10 9 9 10 11 11 12 14 16 17 16 14 14 14
8 8 6 4 1 2 3 6 9 11 13 16 18 18 19 20 21 24 26 26 25 25 24 24 24 22 20 19 16 14 14 16 18 18 19 19 19 18 18 16 15 14 13 12 10 9 8 7 6 6 5 5 5 4 3 3 2 2 3 4 4 5 6 6 6 6 6 7 8 8 9 9 9 8 8 8 8 10 13 14 14 14 14 13 13
9 7 5 3 2 4 5 7 11 12 13 14 15 15 16 17 20 22 23 24 24 24 23 23 22 22 20 18 16 14 16 18 19 19 19 19 19 18 17 16 15 13 12 11 9 8 8 7 6 6 6 5 5 4 3 2 1 1 2 3 3 4 5 4 4 5 5 5 6 7 8 9 9 8 8 7 8 9 11 12 11 11 11 11 11
7 6 5 4 4 6 8 10 12 14 16 16 16 17 18 19 22 24 24 25 25 25 24 22 20 19 18 17 15 16 18 19 19 19 18 17 16 16 15 14 13 12 11 10 9 8 8 7 6 6 5 5 4 4 3 2 1 1 2 2 3 4 4 3 3 4 4 4 5 6 8 8 9 9 8 8 9 9 10 10 9 8 8 9 10
5 5 4 4 6 8 10 12 14 16 18 20 21 21 22 23 25 25 25 25 24 23 21 20 18 17 17 17 17 18 18 18 18 17 16 14 13 12 12 11 10 10 9 9 8 8 7 6 5 4 4 4 3 3 2 2 2 2 3 3 4 4 4 4 4 5 5 5 5 6 7 8 10 10 10 10 10 10 10 9 8 7 7 7 8
5 5 6 6 8 10 11 13 15 17 19 21 22 24 25 27 28 28 27 25 23 21 20 20 20 20 19 18 18 17 17 16 15 14 13 11 10 9 9 8 7 7 7 7 6 5 5 4 3 2 2 2 2 2 2 2 3 3 4 5 5 6 6 6 7 7 7 7 7 7 8 8 9 10 11 10 10 11 11 10 8 8 8 8 8
7 8 8 10 11 13 15 16 16 17 18 19 22 24 25 26 26 26 25 23 22 20 20 21 20 20 19 19 18 17 16 15 13 12 10 9 9 7 6 6 5 4 4 4 3 2 1 1 1 1 1 2 2 3 3 4 4 5 6 6 7 8 8 9 9 9 9 9 9 10 10 10 11 11 11 11 11 12 12 11 10 10 10 10 9
10 11 12 13 15 16 18 20 20 20 21 22 23 23 23 23 23 23 23 22 21 20 20 19 18 18 18 16 15 13 13 12 11 10 9 8 7 6 4 4 3 1 1 1 1 1 1 1 2 3 4 4 4 5 5 6 7 7 8 9 10 10 10 10 10 11 11 11 12 12 13 13 14 14 13 13 12 12 12 12 12 12 12 12 12
14 15 17 18 20 21 23 24 25 25 26 27 27 26 26 25 24 23 22 22 21 20 18 17 16 15 14 13 11 10 9 10 10 10 9 7 5 4 3 3 1 1 2 2 3 3 3 3 4 5 6 7 7 7 7 8 9 10 10 11 12 13 12 12 11 12 12 13 13 14 14 15 15 15 16 15 14 13 13 13 13 13 13 13 13
20 21 22 24 25 26 27 28 29 29 29 29 29 28 26 25 24 23 22 21 21 21 19 18 17 15 14 13 12 11 10 10 11 10 9 6 4 3 3 2 2 3 4 4 5 5 6 7 8 9 9 10 10 9 9 10 10 12 12 13 14 14 13 12 12 12 12 12 13 13 14 15 15 15 15 15 15 15 14 14 14 14 13 13 13
24 26 28 29 30 31 31 31 31 31 31 30 30 29 27 25 25 24 23 22 22 21 20 19 18 16 14 13 12 10 9 8 8 7 6 5 5 4 3 3 3 4 5 6 6 7 7 8 9 10 10 11 11 11 11 11 12 12 12 13 13 13 13 12 12 12 12 12 13 13 14 15 15 16 16 16 16 15 15 14 14 14 14 14 13
Wind_Direction
225 227 228 228 229 230 231 231 232 233 235 236 237 238 239 240 241 242 241 239 238 238 237 234 233 234 235 236 237 236 236 236 237 238 241 244 247 249 251 252 254 256 257 257 257 257 259 260 263 265 268 270 271 273 275 277 280 281 280 278 277 276 275 273 275 284 292 294 296 298 299 298 297 297 297 297 295 294 292 291 289 287 285 283 282
225 227 227 228 229 230 232 232 233 234 235 237 238 239 241 242 243 244 243 241 240 240 238 235 233 234 233 234 236 235 234 234 236 237 239 243 246 249 251 252 254 256 257 257 257 258 260 261 263 264 266 268 270 271 273 275 277 280 281 282 282 281 280 279 279 283 291 296 297 298 299 298 297 298 298 296 296 294 292 291 290 288 286 285 283
225 226 227 228 229 231 232 233 234 235 236 238 240 241 242 243 245 246 245 244 241 240 238 237 235 234 234 234 235 235 234 233 234 235 237 241 245 249 252 253 255 256 257 258 259 261 262 264 265 266 267 268 270 273 275 277 278 280 282 282 283 284 285 284 283 285 290 296 298 299 301 300 299 299 298 296 294 292 290 290 289 288 287 286 284
224 225 226 228 229 230 232 233 234 235 236 238 240 242 243 245 246 247 246 246 243 241 239 238 236 236 235 235 234 234 233 232 233 233 234 237 242 246 250 253 255 256 257 259 261 263 264 265 267 268 270 271 273 275 277 279 281 282 283 284 284 286 287 286 286 287 290 293 297 300 301 300 299 299 299 297 295 294 292 290 287 286 285 284 284
222 224 226 228 229 230 231 233 235 235 236 238 239 241 243 245 246 247 247 246 245 242 241 240 237 236 235 234 234 233 233 233 233 233 233 235 239 243 247 251 254 256 258 260 262 264 266 267 268 270 271 273 274 277 279 281 283 283 284 285 286 287 287 287 287 288 288 290 294 298 298 298 297 297 297 297 296 295 293 291 289 287 285 284 283
220 223 225 227 228 230 231 233 235 236 237 238 239 241 242 244 246 246 246 246 245 244 243 241 239 237 235 234 234 234 233 234 235 235 235 236 238 241 245 248 251 254 257 259 262 264 266 268 269 270 271 274 276 278 279 280 281 283 284 286 287 288 288 288 289 289 289 291 293 295 296 296 296 296 296 296 296 295 294 292 290 288 288 288 286
219 222 224 226 228 230 232 233 235 236 237 238 239 241 242 243 245 246 246 246 246 245 243 242 241 239 238 236 236 235 235 235 236 236 237 238 239 241 244 247 250 252 255 258 261 263 266 268 269 270 272 274 276 278 278 279 280 282 283 285 286 287 288 289 290 291 292 293 294 295 295 296 295 295 296 297 296 295 295 295 294 292 293 292 291
218 221 223 225 228 230 232 234 235 236 237 238 240 240 242 243 244 245 246 246 245 245 244 244 244 243 241 239 238 237 237 237 237 236 237 238 240 243 245 248 250 253 255 257 259 262 265 267 268 270 271 273 275 277 277 279 281 282 283 284 286 287 289 290 292 293 294 294 295 295 295 296 296 296 297 297 296 296 298 299 297 295 296 296 295
218 220 222 225 228 230 232 233 234 235 236 237 239 240 241 242 243 245 245 245 245 245 245 246 246 245 243 242 241 240 240 239 238 238 239 240 241 244 246 249 251 254 256 258 259 262 264 266 268 269 271 273 274 276 277 279 281 282 283 284 286 288 290 292 293 295 295 295 295 295 295 295 296 297 298 297 298 298 299 299 297 297 300 299 297
219 220 223 226 228 230 231 232 233 234 235 236 237 238 239 240 241 242 243 244 245 245 245 246 246 245 245 244 244 243 242 241 240 240 242 243 244 246 248 250 253 255 257 259 261 263 265 268 270 271 273 274 275 277 278 280 282 283 284 285 287 289 292 293 295 295 295 295 294 295 295 295 296 299 299 300 301 300 299 299 299 300 301 300 298
219 221 224 227 228 229 230 231 233 234 235 236 236 237 237 238 239 241 242 243 244 245 245 245 245 245 246 245 245 245 244 243 243 243 244 245 247 249 250 252 255 257 259 261 263 265 267 269 271 273 275 276 277 279 282 283 285 286 285 286 288 290 292 294 295 295 295 295 295 296 295 296 299 301 302 303 304 302 301 300 299 299 300 300 300
219 222 225 226 228 229 230 231 233 234 235 236 236 237 238 239 239 240 241 242 243 244 244 244 244 244 246 246 246 246 245 244 245 246 246 247 249 251 253 255 257 259 261 263 264 267 269 272 274 276 278 279 282 284 286 286 288 288 289 289 289 289 291 293 294 295 295 295 296 295 295 297 301 302 302 304 304 302 300 297 296 296 298 296 295
220 222 224 226 228 229 231 232 233 235 235 236 237 238 239 239 240 240 241 242 243 244 244 244 244 244 245 246 246 246 246 245 246 247 247 249 250 252 255 257 259 261 263 264 266 269 271 274 276 278 280 282 285 287 288 289 290 291 292 292 290 291 293 296 297 297 297 296 295 295 297 300 301 301 303 303 300 296 295 294 295 296 294 291 291
220 223 224 226 228 230 231 232 234 235 235 236 237 238 239 240 240 241 242 243 244 244 244 244 244 243 243 244 245 246 246 246 246 247 248 250 251 253 256 258 260 262 264 266 268 270 273 275 278 280 281 283 286 288 289 291 293 294 295 295 294 295 297 299 299 299 299 299 296 297 300 302 301 300 303 302 296 292 291 294 298 297 293 291 293
221 223 225 227 228 230 231 232 234 235 235 236 237 238 239 240 241 242 242 243 244 245 246 246 246 245 244 244 245 245 245 245 247 248 249 250 252 255 256 258 261 263 264 266 268 270 273 276 278 280 282 283 285 287 289 292 294 295 296 296 297 298 299 301 300 299 300 299 297 298 300 300 298 298 301 302 300 297 293 294 299 296 291 291 292
222 224 226 227 229 230 232 233 234 235 235 236 237 238 240 241 241 242 243 244 245 246 247 247 247 247 246 247 247 246 245 246 247 249 250 252 254 256 258 260 262 263 264 266 268 270 273 275 277 279 281 283 285 287 290 292 293 294 295 295 297 298 298 299 298 296 296 294 294 295 294 292 293 295 298 300 303 303 298 295 297 295 290 290 290
223 225 227 229 230 231 232 233 234 235 236 237 238 239 240 241 241 242 242 242 243 244 244 245 246 247 247 248 248 247 246 246 248 249 251 253 255 257 258 260 263 264 265 266 268 271 272 274 277 279 281 283 284 287 291 292 292 293 294 295 296 295 296 298 299 297 295 293 292 290 288 290 293 296 299 300 303 305 298 293 295 295 290 287 285
224 226 228 230 232 233 234 235 236 236 236 237 239 240 240 241 241 241 242 243 243 244 245 246 246 247 247 246 247 248 247 247 249 250 251 253 255 256 258 261 263 264 265 266 267 269 270 273 276 278 279 281 284 288 291 291 290 291 293 295 295 294 296 299 299 298 297 295 293 294 295 298 301 302 304 304 306 306 298 295 298 296 290 285 283
226 228 231 233 234 235 236 236 237 237 237 238 240 240 240 240 241 241 242 242 244 244 245 247 247 247 246 246 247 248 248 248 250 250 251 252 254 255 257 260 261 262 263 265 266 268 270 272 274 275 277 281 285 287 288 288 289 291 293 293 292 293 297 297 294 292 292 292 295 300 304 307 308 308 309 310 311 310 306 303 303 298 291 289 287
228 231 233 234 235 235 236 237 237 238 238 239 239 239 240 241 241 241 242 242 243 243 244 245 247 247 248 247 247 246 247 248 250 251 251 252 253 255 257 258 260 262 264 267 269 270 272 272 273 276 280 283 286 287 288 288 288 289 289 289 290 295 299 296 290 285 286 292 301 307 308 309 309 308 309 308 308 308 306 305 304 301 296 293 291
229 231 233 234 234 236 236 237 238 239 239 240 240 240 241 242 242 242 243 243 243 243 243 244 246 247 248 249 248 247 247 250 251 252 253 254 254 256 257 259 261 265 267 269 271 272 273 274 277 280 283 285 287 288 287 286 286 287 288 289 293 297 299 298 295 291 293 302 309 309 307 307 306 304 304 303 303 303 303 303 305 307 303 297 294
230 232 233 234 235 236 237 238 240 241 241 242 242 243 243 243 244 244 244 244 244 244 244 245 246 248 249 250 250 249 249 252 254 254 254 255 256 256 258 260 263 266 268 269 270 272 274 277 280 282 284 285 285 284 284 285 286 289 292 295 298 300 301 303 303 302 303 306 308 307 305 305 303 302 301 302 303 304 304 303 305 306 302 298 293
231 233 235 237 238 238 239 240 242 243 244 244 245 246 246 245 245 245 244 245 245 246 246 247 247 249 250 250 251 251 252 253 254 254 255 256 257 258 259 261 263 264 266 268 270 273 275 277 279 280 281 282 282 283 285 288 291 293 295 296 297 299 301 302 303 303 304 306 306 306 306 304 303 303 304 305 306 306 305 303 302 301 300 298 295
228 232 235 238 240 242 243 245 246 246 247 247 247 247 247 246 246 246 246 245 246 246 247 247 248 249 250 251 251 252 253 254 254 255 255 257 257 258 260 261 261 262 264 266 268 269 271 273 275 277 278 280 282 285 287 289 290 291 292 293 296 298 300 301 302 303 304 305 305 305 306 307 308 308 308 308 307 307 306 304 302 301 301 300 299
226 229 233 235 238 240 243 245 247 248 248 248 248 248 248 247 247 247 246 246 246 247 247 248 249 250 251 252 253 253 253 254 254 255 256 257 258 259 260 260 259 258 260 262 263 264 267 270 272 274 277 278 280 282 284 285 286 287 291 295 299 300 301 300 301 301 302 303 306 308 311 313 315 315 315 314 314 315 315 313 310 309 307 305 303
224 227 230 233 235 236 239 242 244 246 247 248 249 250 249 249 248 248 248 247 247 247 248 248 249 251 252 253 255 255 255 255 255 256 256 257 257 258 258 257 255 253 254 256 258 260 263 264 266 268 270 272 276 279 281 281 284 289 295 299 299 298 298 297 297 300 303 307 310 314 318 321 323 324 324 323 324 326 326 323 321 319 317 314 311
218 221 224 227 230 232 235 237 239 241 243 245 246 247 248 249 248 248 247 247 246 247 247 248 249 251 253 255 256 257 257 256 255 255 256 255 254 253 252 250 246 246 247 249 251 253 254 256 257 259 263 267 271 274 276 280 287 293 295 294 293 292 292 294 298 303 309 315 319 323 327 329 330 331 331 330 332 333 332 330 328 326 325 322 318
214 216 218 220 224 228 230 232 233 235 237 240 242 243 244 245 246 248 248 249 249 249 249 251 252 253 255 256 257 257 257 257 257 256 255 253 250 245 242 240 237 236 238 242 244 246 248 251 254 257 260 263 266 271 278 285 289 289 286 283 283 285 289 295 303 311 317 324 329 333 336 337 337 336 336 338 340 342 341 339 337 335 333 330 326
212 214 216 217 219 222 225 227 227 228 230 233 236 238 240 242 244 247 249 250 251 252 254 255 256 258 259 259 260 260 261 262 264 261 256 250 244 239 236 234 234 235 236 239 243 246 249 251 254 256 257 259 266 274 280 281 279 275 273 273 277 285 294 302 310 318 327 333 339 343 344 344 344 343 344 346 347 350 351 350 347 345 342 340 336
206 208 211 214 214 215 218 221 223 225 226 228 230 232 235 238 240 243 245 247 250 251 253 254 256 258 259 260 261 262 261 261 259 254 250 245 240 237 234 231 231 233 234 236 239 242 244 245 245 247 250 258 266 269 267 267 264 261 262 268 279 291 299 307 317 328 336 341 345 347 348 350 352 353 352 351 350 352 354 354 353 349 347 346 346
198 199 203 208 211 213 215 218 220 223 225 226 228 230 231 233 236 239 241 244 247 248 250 251 252 253 254 255 254 252 249 242 238 239 241 239 237 235 232 228 226 226 227 229 231 233 234 234 236 242 251 256 257 254 253 255 253 253 262 276 288 296 305 317 329 338 343 346 348 350 352 356 358 358 355 353 352 353 355 356 356 353 351 351 352
194 194 195 200 205 210 215 218 221 224 226 227 227 228 230 232 233 235 237 240 243 245 247 248 248 248 248 246 242 240 238 234 233 234 235 234 231 230 229 227 224 222 220 221 224 227 229 232 236 242 247 246 245 248 250 250 249 254 269 282 294 307 319 330 339 345 349 351 353 356 359 359 359 358 356 356 356 357 358 358 358 358 357 356 358
196 194 193 193 197 204 212 218 222 225 227 227 227 228 229 231 234 236 237 238 240 242 243 243 242 240 237 234 233 232 233 234 234 234 233 232 230 227 225 222 218 216 216 217 220 222 226 228 230 233 237 241 245 247 247 248 254 265 275 287 309 325 330 338 347 350 353 356 358 1 3 1 358 357 357 359 1 1 1 1 1 2 3 4 5
198 194 191 190 194 199 206 218 227 228 228 228 229 229 229 231 235 239 240 239 239 239 238 237 234 230 228 228 229 231 232 234 237 236 232 228 225 222 218 215 210 206 207 213 218 219 220 220 222 227 234 239 241 241 243 250 259 270 286 307 329 332 332 341 348 350 355 360 2 3 5 3 1 359 360 3 5 6 6 6 6 7 9 11 13
197 193 187 184 186 190 194 208 230 237 235 232 230 231 231 232 233 237 239 239 239 237 233 230 228 226 226 226 228 230 231 232 235 232 224 215 210 207 205 203 199 196 197 202 207 209 213 218 223 226 229 231 232 235 240 248 257 272 299 320 327 327 330 339 344 348 356 2 4 5 6 5 3 2 3 6 10 12 12 12 13 15 18 22 27
173 179 181 177 175 181 189 199 220 236 239 236 234 233 233 233 233 233 233 232 234 233 230 227 226 226 227 227 226 226 225 222 219 213 206 201 198 194 190 187 187 190 194 196 200 206 213 216 216 215 217 222 227 232 237 244 258 280 299 307 312 317 324 331 337 344 354 359 2 5 8 8 7 6 6 10 16 19 20 21 23 27 31 36 41
142 149 157 162 167 174 184 197 215 230 234 234 233 231 230 229 229 231 230 228 228 227 225 225 227 227 226 221 213 206 203 202 197 191 187 188 188 182 173 169 172 179 186 195 206 212 211 206 204 206 212 219 224 230 236 245 263 280 286 289 298 307 316 320 326 335 345 352 358 3 8 11 11 8 7 12 18 23 25 28 33 37 39 41 44
118 129 132 139 152 169 188 203 219 232 237 234 230 229 229 228 225 224 224 224 224 223 223 224 226 223 216 204 189 182 183 184 180 173 170 174 178 175 170 170 171 173 184 201 209 208 204 201 201 202 207 214 220 226 234 246 258 265 271 277 286 298 307 310 315 325 333 341 353 2 8 13 15 11 8 11 17 21 26 31 34 36 37 38 41
69 89 106 111 120 153 202 221 225 230 236 234 227 223 223 222 221 220 220 219 218 217 217 217 212 203 195 186 178 175 175 172 167 165 167 174 179 179 176 175 175 180 194 203 201 196 196 196 195 198 203 208 213 219 226 233 242 251 263 275 287 299 302 303 312 322 327 334 350 2 9 16 20 16 10 9 14 20 25 30 32 33 35 37 39
36 48 68 91 111 147 228 243 237 230 227 225 223 219 217 216 214 211 210 211 209 205 204 203 197 186 180 176 173 172 171 166 161 163 169 175 178 177 173 173 177 184 190 191 186 183 186 189 190 195 198 198 201 207 212 221 235 249 267 283 296 303 305 310 320 327 329 338 353 5 13 21 26 21 11 8 12 18 22 24 24 26 32 36 38
17 21 30 40 40 225 228 233 232 229 223 219 217 218 219 217 209 201 199 201 200 192 184 181 177 171 168 166 165 169 173 168 162 163 165 167 170 172 170 170 174 178 179 178 175 177 183 187 190 192 190 190 196 201 204 220 240 260 286 300 308 312 315 323 331 333 336 346 356 6 17 25 29 26 17 11 11 12 12 11 11 13 20 26 28
8 2 4 9 329 244 226 213 213 217 221 218 213 209 208 204 196 187 183 184 182 176 169 163 161 161 161 160 159 163 169 165 161 161 163 164 167 169 168 168 171 173 175 175 174 177 184 189 191 191 190 189 192 196 203 221 242 276 303 312 317 318 320 328 335 337 343 354 358 5 18 26 27 23 17 8 2 358 357 359 3 6 9 13 18
356 345 340 332 264 223 215 208 201 197 199 204 203 197 189 182 176 170 163 158 157 158 156 152 150 150 151 152 154 159 163 162 160 160 161 163 165 166 167 168 171 172 173 174 176 179 184 186 186 188 189 189 189 192 198 210 232 286 307 314 323 326 325 329 338 342 347 352 355 359 9 17 20 17 10 359 350 349 351 357 2 7 10 14 17
337 325 313 287 243 218 208 204 200 192 185 181 179 175 171 169 167 165 160 154 151 150 148 145 143 143 143 146 153 160 162 160 159 158 160 162 164 166 167 168 168 168 169 171 173 174 174 174 177 181 184 187 189 190 193 198 216 260 285 299 316 327 330 328 330 341 349 351 351 350 349 351 355 356 354 349 344 341 344 350 354 360 8 13 15
303 289 271 244 224 211 203 198 195 190 184 176 168 164 163 162 161 160 158 154 150 147 145 144 147 149 149 153 159 162 160 157 155 155 155 157 160 161 162 162 162 163 164 165 166 165 163 163 168 175 182 189 191 195 206 219 232 252 268 283 296 306 313 314 318 329 340 343 345 343 335 331 331 333 335 338 337 334 333 337 341 345 348 349 350
255 238 225 213 199 190 186 185 186 185 181 173 164 158 155 153 151 151 151 151 150 149 147 147 149 151 151 152 153 150 146 144 143 142 142 143 143 141 140 138 138 143 148 149 150 153 156 161 164 169 187 206 218 233 248 255 264 272 279 288 298 305 312 317 320 323 327 329 333 335 331 325 321 320 320 323 325 325 324 325 328 332 334 333 331
232 212 197 190 183 175 169 169 171 172 169 161 154 148 144 144 145 146 146 148 149 149 147 146 146 144 141 137 134 132 131 131 128 126 127 130 128 125 124 120 117 120 132 136 134 130 138 177 221 240 254 262 269 275 276 278 282 286 290 296 300 306 312 318 320 323 325 326 327 330 329 326 322 318 316 315 315 316 317 316 317 321 323 325 327
209 198 186 178 174 170 165 163 163 162 158 154 150 148 148 149 151 150 149 148 147 146 145 144 143 138 133 128 127 130 135 136 131 125 124 126 128 130 129 124 117 109 125 168 189 212 268 294 301 308 309 304 297 290 286 285 287 289 293 298 301 305 309 312 315 318 320 321 323 326 326 324 322 321 319 317 314 311 310 310 310 313 314 316 319
191 182 175 170 167 163 161 159 158 157 156 155 154 152 152 152 151 149 149 149 149 148 147 147 145 144 142 139 136 140 153 161 158 149 141 135 136 141 139 135 159 252 279 269 252 257 269 277 281 284 286 285 286 284 282 283 286 287 290 294 299 302 304 305 307 310 313 316 320 321 321 322 324 324 323 321 315 309 304 302 304 305 305 305 305
180 172 165 160 156 154 153 153 153 152 153 154 153 151 151 151 150 151 153 155 155 154 154 154 154 155 153 148 144 149 165 173 168 160 152 143 141 152 161 171 212 250 267 269 265 265 270 271 270 267 263 263 265 267 268 271 276 280 285 292 297 300 300 299 300 303 306 309 313 316 317 320 323 324 325 324 321 314 307 302 300 299 299 298 296
168 165 159 151 146 144 144 144 144 145 147 148 149 149 150 150 149 149 151 152 150 147 145 144 144 142 138 131 127 129 137 139 134 132 132 129 131 149 171 193 234 259 266 266 263 262 265 269 270 268 265 262 262 263 264 267 269 271 277 286 292 295 295 295 297 299 301 303 306 309 312 313 316 318 320 322 324 325 322 318 311 304 298 294 291
Height
1511 1514 1517 1521 1524 1526 1530 1532 1535 1538 1540 1542 1544 1546 1549 1551 1553 1556 1557 1560 1562 1564 1565 1567 1569 1571 1573 1574 1576 1578 1579 1580 1581 1582 1583 1584 1585 1586 1587 1588 1589 1589 1590 1591 1592 1592 1592 1592 1593 1593 1594 1594 1595 1596 1596 1596 1596 1596 1597 1597 1597 1597 1596 1596 1594 1589 1588 1590 1591 1591 1591 1591 1590 1590 1590 1589 1589 1589 1588 1587 1587 1586 1585 1585 1585
1507 1511 1514 1518 1520 1524 1527 1530 1533 1535 1537 1539 1541 1544 1546 1548 1551 1553 1554 1557 1559 1561 1563 1564 1567 1568 1570 1572 1573 1575 1577 1578 1579 1580 1581 1582 1583 1584 1585 1586 1587 1588 1589 1589 1590 1591 1591 1591 1592 1592 1593 1593 1594 1594 1595 1595 1595 1595 1596 1595 1595 1595 1594 1593 1592 1589 1586 1586 1588 1588 1588 1588 1587 1588 1588 1587 1587 1586 1585 1584 1584 1583 1583 1582 1582
1504 1508 1511 1514 1518 1521 1524 1527 1530 1532 1534 1536 1538 1541 1543 1546 1548 1550 1552 1554 1556 1558 1560 1562 1564 1566 1567 1569 1571 1572 1574 1575 1577 1578 1579 1580 1581 1582 1583 1584 1585 1586 1587 1587 1588 1589 1589 1589 1590 1591 1592 1592 1592 1593 1593 1594 1594 1594 1594 1594 1593 1593 1593 1592 1590 1588 1585 1584 1585 1586 1586 1586 1585 1585 1585 1584 1584 1583 1582 1581 1581 1580 1579 1579 1578
1501 1504 1508 1511 1515 1518 1521 1524 1526 1529 1531 1533 1536 1538 1541 1543 1545 1547 1549 1551 1553 1555 1557 1559 1561 1563 1565 1566 1568 1569 1571 1572 1574 1575 1577 1578 1579 1580 1581 1581 1583 1584 1585 1586 1586 1587 1587 1588 1588 1589 1590 1590 1590 1591 1591 1592 1592 1592 1592 1592 1591 1591 1591 1590 1589 1587 1585 1582 1582 1583 1584 1583 1582 1582 1581 1580 1580 1579 1578 1577 1577 1576 1575 1575 1574
1497 1500 1504 1508 1511 1514 1517 1520 1523 1525 1528 1530 1533 1536 1538 1540 1542 1544 1546 1548 1550 1552 1554 1556 1558 1560 1561 1563 1565 1567 1568 1570 1571 1573 1574 1575 1576 1577 1578 1579 1580 1581 1582 1583 1584 1585 1585 1586 1586 1587 1588 1588 1588 1589 1589 1589 1590 1589 1589 1589 1589 1588 1588 1588 1587 1586 1584 1581 1580 1580 1581 1579 1578 1578 1578 1577 1575 1574 1574 1572 1571 1570 1570 1570 1569
1493 1497 1501 1504 1507 1511 1514 1516 1519 1522 1524 1527 1530 1533 1535 1537 1539 1541 1543 1545 1547 1549 1551 1553 1554 1556 1558 1560 1562 1564 1565 1567 1568 1570 1571 1573 1574 1575 1576 1577 1578 1579 1580 1581 1582 1583 1583 1583 1584 1585 1585 1585 1586 1587 1587 1587 1587 1587 1587 1586 1586 1586 1585 1585 1585 1583 1581 1579 1577 1576 1576 1576 1574 1574 1574 1573 1571 1570 1569 1568 1566 1566 1565 1565 1564
1490 1494 1497 1501 1504 1507 1510 1513 1516 1519 1521 1524 1527 1530 1532 1534 1536 1538 1540 1542 1544 1546 1548 1549 1551 1553 1555 1557 1559 1561 1562 1564 1565 1567 1568 1569 1571 1572 1573 1574 1576 1577 1578 1579 1579 1580 1580 1581 1582 1582 1583 1583 1584 1584 1585 1585 1585 1584 1584 1584 1583 1583 1582 1582 1582 1580 1579 1577 1575 1573 1571 1571 1571 1569 1570 1569 1567 1565 1565 1563 1561 1560 1561 1560 1559
1486 1490 1493 1497 1500 1503 1507 1510 1513 1516 1519 1521 1524 1527 1529 1531 1533 1535 1537 1539 1541 1543 1544 1546 1548 1550 1552 1554 1555 1557 1559 1560 1562 1563 1565 1566 1568 1569 1570 1571 1572 1574 1575 1576 1577 1577 1578 1578 1579 1579 1580 1581 1581 1582 1582 1582 1582 1582 1581 1581 1580 1580 1579 1579 1578 1577 1576 1573 1572 1570 1568 1566 1566 1565 1565 1565 1563 1561 1561 1559 1555 1554 1556 1555 1553
1483 1486 1490 1493 1496 1500 1504 1507 1510 1513 1516 1518 1521 1523 1526 1528 1530 1532 1534 1536 1538 1540 1542 1544 1545 1547 1548 1550 1552 1554 1555 1556 1558 1560 1561 1563 1565 1566 1567 1568 1569 1571 1572 1572 1574 1574 1575 1576 1576 1577 1577 1578 1578 1579 1579 1580 1580 1579 1579 1578 1578 1577 1576 1576 1575 1574 1573 1570 1568 1567 1564 1562 1561 1562 1561 1560 1559 1557 1556 1554 1551 1550 1551 1549 1548
1479 1483 1486 1489 1493 1497 1500 1503 1506 1509 1512 1514 1517 1520 1522 1525 1527 1529 1531 1532 1535 1537 1539 1540 1542 1543 1545 1547 1549 1550 1551 1553 1554 1556 1558 1560 1562 1563 1564 1565 1567 1568 1568 1569 1570 1571 1572 1573 1573 1574 1574 1575 1575 1576 1576 1577 1577 1577 1576 1575 1575 1574 1573 1573 1572 1572 1570 1567 1564 1563 1561 1557 1557 1558 1556 1555 1555 1553 1551 1550 1547 1546 1547 1544 1542
1475 1479 1482 1486 1490 1494 1497 1500 1503 1506 1508 1511 1514 1516 1519 1521 1523 1525 1527 1529 1531 1533 1535 1537 1538 1540 1541 1543 1545 1546 1548 1549 1551 1553 1555 1557 1558 1560 1561 1562 1563 1564 1565 1566 1567 1568 1569 1570 1570 1571 1571 1572 1572 1573 1573 1573 1573 1573 1573 1572 1572 1571 1571 1570 1569 1568 1567 1563 1561 1559 1557 1554 1553 1554 1552 1550 1549 1547 1545 1545 1543 1543 1545 1542 1538
1472 1476 1479 1483 1487 1490 1493 1497 1499 1502 1505 1508 1510 1513 1515 1517 1519 1521 1523 1525 1528 1530 1531 1533 1534 1536 1538 1539 1541 1542 1544 1546 1548 1550 1551 1553 1555 1557 1558 1559 1560 1561 1562 1563 1564 1565 1565 1566 1567 1567 1568 1568 1569 1569 1569 1569 1569 1569 1569 1569 1568 1568 1568 1568 1567 1565 1563 1561 1557 1554 1553 1551 1549 1549 1549 1547 1544 1541 1540 1541 1542 1542 1542 1539 1534
1470 1473 1477 1480 1483 1486 1490 1493 1496 1499 1501 1504 1507 1510 1512 1514 1515 1518 1520 1522 1524 1526 1527 1529 1531 1533 1534 1535 1537 1538 1540 1542 1544 1546 1548 1550 1552 1553 1554 1555 1556 1557 1558 1559 1560 1561 1562 1563 1563 1564 1564 1565 1565 1565 1565 1565 1565 1565 1565 1565 1564 1564 1565 1565 1563 1561 1560 1558 1553 1549 1550 1550 1545 1542 1544 1543 1539 1536 1537 1539 1541 1538 1534 1531 1529
1467 1470 1474 1477 1480 1483 1486 1489 1492 1495 1498 1501 1504 1506 1508 1510 1512 1514 1516 1518 1520 1522 1523 1525 1527 1529 1531 1532 1533 1535 1536 1538 1540 1543 1544 1546 1548 1550 1551 1552 1553 1554 1555 1556 1557 1557 1558 1559 1559 1560 1560 1561 1561 1562 1562 1561 1561 1561 1561 1560 1560 1560 1561 1561 1560 1558 1556 1554 1550 1545 1545 1547 1542 1537 1538 1537 1533 1532 1535 1538 1536 1530 1527 1527 1524
1464 1467 1471 1474 1477 1480 1483 1485 1489 1492 1495 1497 1500 1501 1504 1506 1508 1511 1513 1514 1516 1518 1520 1522 1523 1525 1527 1529 1530 1531 1532 1535 1537 1539 1541 1543 1545 1546 1547 1548 1549 1550 1551 1552 1553 1554 1555 1555 1556 1556 1556 1557 1558 1558 1558 1558 1558 1557 1557 1556 1556 1556 1556 1556 1555 1553 1552 1550 1546 1542 1541 1542 1539 1535 1534 1532 1529 1527 1528 1531 1528 1524 1523 1522 1516
1461 1464 1467 1470 1473 1476 1479 1482 1485 1488 1491 1493 1495 1497 1500 1502 1504 1507 1509 1511 1512 1514 1516 1518 1520 1522 1523 1525 1526 1527 1529 1531 1533 1535 1537 1539 1541 1542 1543 1544 1545 1546 1547 1548 1549 1550 1551 1552 1552 1552 1553 1553 1554 1555 1555 1555 1554 1553 1553 1552 1552 1552 1551 1552 1552 1550 1549 1546 1543 1541 1539 1537 1536 1534 1532 1530 1528 1525 1523 1521 1521 1520 1518 1514 1509
1458 1461 1464 1467 1470 1473 1476 1479 1481 1484 1487 1489 1491 1493 1496 1498 1501 1503 1505 1506 1508 1510 1512 1514 1516 1518 1519 1521 1522 1523 1525 1527 1529 1531 1533 1535 1536 1537 1539 1540 1541 1542 1543 1544 1545 1546 1547 1548 1548 1549 1549 1549 1550 1551 1552 1552 1551 1550 1549 1548 1548 1547 1547 1548 1547 1546 1545 1543 1540 1538 1535 1533 1532 1531 1529 1527 1526 1525 1521 1516 1515 1515 1512 1507 1503
1454 1457 1460 1463 1467 1470 1473 1475 1478 1480 1483 1485 1487 1490 1492 1494 1497 1499 1500 1502 1504 1506 1508 1510 1512 1513 1515 1517 1518 1519 1521 1523 1525 1527 1529 1531 1532 1534 1535 1536 1537 1538 1539 1540 1541 1542 1543 1544 1545 1545 1545 1546 1547 1548 1549 1548 1547 1546 1546 1544 1542 1541 1542 1543 1542 1540 1539 1536 1533 1532 1530 1528 1527 1525 1523 1522 1521 1522 1519 1512 1510 1509 1505 1500 1497
1451 1454 1457 1461 1464 1467 1469 1472 1474 1477 1479 1481 1484 1486 1488 1491 1493 1495 1497 1499 1501 1503 1505 1506 1507 1509 1511 1512 1514 1515 1516 1518 1521 1523 1525 1527 1528 1530 1531 1532 1533 1534 1535 1536 1537 1538 1539 1540 1541 1542 1542 1543 1544 1545 1545 1545 1544 1543 1543 1541 1538 1537 1538 1539 1537 1535 1534 1531 1529 1528 1526 1524 1522 1519 1517 1516 1515 1515 1513 1508 1505 1503 1499 1495 1493
1449 1452 1455 1458 1461 1464 1466 1469 1471 1473 1476 1478 1481 1483 1485 1488 1490 1492 1494 1496 1498 1500 1501 1502 1503 1505 1507 1508 1510 1511 1512 1514 1516 1518 1520 1522 1524 1526 1527 1528 1529 1530 1531 1532 1533 1534 1535 1536 1537 1538 1538 1539 1540 1541 1541 1541 1540 1540 1540 1538 1535 1534 1534 1533 1531 1529 1529 1530 1528 1526 1524 1521 1519 1516 1513 1512 1510 1509 1507 1503 1500 1498 1495 1490 1487
1448 1451 1453 1456 1458 1461 1463 1466 1468 1471 1473 1476 1478 1480 1482 1484 1486 1488 1490 1492 1494 1496 1497 1499 1500 1501 1503 1504 1506 1507 1508 1510 1512 1514 1516 1518 1520 1521 1522 1523 1525 1526 1527 1528 1529 1530 1531 1532 1533 1534 1535 1535 1536 1536 1537 1537 1536 1536 1535 1534 1533 1531 1530 1529 1527 1524 1524 1525 1524 1522 1521 1519 1517 1514 1511 1509 1507 1505 1502 1499 1496 1493 1491 1486 1482
1446 1449 1451 1453 1456 1458 1460 1463 1466 1468 1471 1473 1475 1477 1479 1481 1483 1485 1487 1489 1491 1492 1494 1496 1497 1498 1500 1501 1502 1503 1505 1507 1509 1510 1512 1514 1516 1517 1518 1519 1521 1523 1523 1524 1525 1526 1527 1528 1529 1530 1531 1532 1532 1533 1533 1533 1533 1532 1531 1530 1529 1529 1527 1526 1525 1523 1521 1520 1519 1518 1517 1515 1513 1510 1507 1505 1502 1500 1498 1495 1492 1489 1486 1481 1478
1445 1447 1449 1451 1453 1456 1458 1461 1463 1465 1468 1470 1472 1474 1476 1478 1480 1482 1484 1486 1487 1489 1490 1492 1494 1495 1496 1497 1498 1500 1502 1503 1505 1507 1508 1510 1512 1513 1515 1516 1518 1519 1519 1520 1521 1522 1524 1525 1526 1527 1528 1528 1528 1528 1528 1528 1528 1528 1527 1527 1526 1526 1525 1523 1522 1520 1518 1517 1516 1514 1513 1511 1509 1506 1504 1501 1498 1496 1493 1490 1487 1484 1480 1476 1473
1443 1445 1447 1450 1452 1454 1456 1458 1461 1463 1465 1467 1469 1471 1473 1475 1477 1479 1480 1482 1484 1485 1487 1489 1490 1491 1493 1494 1495 1497 1499 1500 1502 1504 1505 1507 1508 1510 1511 1513 1514 1515 1516 1517 1518 1519 1520 1521 1523 1523 1524 1524 1524 1525 1525 1525 1525 1524 1524 1524 1524 1523 1522 1520 1518 1517 1516 1514 1513 1511 1509 1508 1505 1502 1500 1497 1494 1491 1488 1484 1480 1477 1474 1469 1466
1440 1442 1445 1447 1450 1452 1454 1456 1458 1460 1462 1464 1466 1468 1470 1472 1473 1475 1477 1478 1480 1482 1484 1485 1487 1488 1489 1490 1492 1494 1496 1497 1499 1500 1502 1504 1505 1506 1508 1509 1511 1512 1512 1513 1515 1516 1517 1518 1519 1520 1520 1521 1521 1521 1521 1521 1521 1521 1521 1521 1520 1519 1518 1517 1515 1514 1513 1512 1510 1508 1506 1504 1502 1499 1496 1492 1489 1485 1482 1478 1474 1471 1468 1462 1458
1437 1439 1442 1444 1447 1450 1452 1453 1455 1457 1459 1461 1462 1465 1466 1468 1470 1471 1473 1475 1476 1478 1480 1482 1483 1484 1486 1487 1489 1491 1493 1494 1496 1497 1499 1500 1502 1503 1505 1506 1507 1508 1509 1510 1511 1513 1514 1515 1516 1517 1518 1518 1518 1519 1518 1518 1518 1518 1518 1517 1516 1516 1515 1513 1513 1511 1510 1509 1507 1505 1503 1500 1498 1495 1492 1489 1486 1482 1477 1471 1466 1463 1459 1453 1447
1435 1437 1439 1441 1444 1446 1448 1450 1452 1454 1456 1457 1459 1461 1463 1465 1466 1468 1469 1471 1473 1475 1477 1478 1480 1481 1483 1485 1486 1488 1489 1491 1492 1494 1496 1497 1499 1500 1501 1502 1504 1505 1506 1507 1508 1510 1511 1512 1513 1514 1515 1515 1515 1516 1516 1516 1515 1515 1515 1515 1514 1513 1512 1511 1510 1509 1507 1506 1504 1502 1500 1497 1495 1492 1489 1486 1483 1479 1474 1468 1461 1456 1452 1446 1438
1432 1434 1436 1438 1440 1442 1444 1446 1448 1450 1452 1454 1456 1457 1459 1461 1462 1463 1465 1467 1469 1471 1473 1475 1476 1478 1480 1482 1483 1484 1486 1487 1489 1491 1493 1494 1496 1497 1498 1499 1500 1501 1502 1504 1505 1507 1508 1509 1510 1510 1511 1511 1512 1513 1513 1513 1513 1513 1513 1512 1511 1511 1510 1509 1508 1507 1505 1503 1501 1499 1497 1495 1492 1490 1487 1483 1480 1476 1470 1465 1459 1453 1448 1442 1433
1430 1432 1433 1435 1437 1439 1441 1443 1445 1447 1449 1450 1452 1454 1455 1457 1458 1460 1462 1464 1466 1468 1470 1472 1474 1476 1477 1479 1480 1481 1482 1484 1486 1488 1490 1491 1492 1493 1494 1496 1497 1498 1500 1501 1502 1503 1504 1505 1506 1507 1508 1509 1510 1510 1511 1511 1511 1511 1510 1510 1509 1509 1508 1507 1506 1504 1503 1501 1499 1497 1495 1492 1490 1487 1484 1480 1477 1473 1469 1463 1458 1452 1446 1439 1431
1428 1429 1431 1433 1434 1436 1438 1439 1441 1443 1445 1446 1448 1450 1452 1454 1455 1457 1459 1461 1463 1465 1467 1469 1471 1473 1475 1476 1477 1478 1479 1481 1483 1485 1486 1487 1489 1490 1491 1492 1494 1495 1496 1498 1499 1500 1501 1502 1503 1504 1505 1506 1507 1508 1509 1509 1509 1509 1508 1508 1508 1507 1506 1505 1504 1502 1501 1499 1497 1495 1492 1490 1488 1484 1481 1477 1474 1471 1467 1463 1458 1452 1445 1437 1429
1426 1427 1429 1430 1432 1433 1435 1436 1438 1439 1441 1443 1445 1447 1449 1451 1452 1454 1456 1458 1460 1462 1464 1466 1468 1470 1471 1473 1474 1475 1476 1478 1480 1481 1482 1484 1485 1486 1488 1489 1490 1492 1493 1495 1496 1497 1498 1500 1501 1502 1503 1504 1505 1506 1507 1507 1507 1507 1506 1506 1506 1505 1504 1503 1502 1500 1499 1497 1495 1493 1491 1488 1486 1483 1479 1476 1473 1469 1466 1462 1457 1452 1445 1438 1430
1424 1425 1427 1428 1429 1431 1432 1433 1435 1436 1438 1440 1442 1444 1446 1448 1450 1452 1453 1455 1457 1459 1461 1463 1465 1467 1468 1469 1471 1472 1473 1475 1476 1477 1478 1480 1481 1483 1485 1486 1488 1489 1491 1492 1494 1495 1496 1498 1499 1500 1501 1502 1503 1504 1504 1505 1505 1505 1505 1504 1504 1503 1502 1501 1500 1498 1496 1495 1493 1491 1489 1487 1485 1482 1479 1475 1472 1468 1464 1460 1455 1450 1444 1438 1431
1422 1423 1425 1426 1427 1428 1430 1431 1433 1434 1435 1437 1440 1442 1444 1446 1447 1449 1451 1453 1454 1456 1458 1460 1462 1463 1465 1466 1467 1469 1470 1471 1473 1474 1475 1476 1478 1480 1482 1483 1485 1487 1488 1490 1492 1493 1495 1496 1497 1499 1500 1501 1501 1502 1502 1503 1503 1503 1503 1502 1502 1501 1500 1499 1498 1496 1495 1493 1492 1490 1488 1486 1483 1481 1478 1475 1471 1468 1464 1459 1454 1449 1443 1436 1430
1420 1421 1422 1424 1425 1426 1427 1429 1431 1432 1434 1436 1438 1440 1442 1444 1445 1447 1448 1450 1452 1453 1455 1456 1458 1460 1461 1463 1464 1466 1467 1468 1469 1471 1472 1474 1476 1477 1479 1481 1482 1484 1487 1489 1491 1492 1493 1495 1496 1497 1498 1499 1500 1500 1500 1501 1501 1501 1500 1500 1499 1499 1498 1497 1495 1494 1493 1492 1491 1489 1487 1485 1482 1479 1477 1474 1471 1468 1465 1460 1454 1449 1443 1438 1432
1418 1419 1420 1422 1423 1424 1426 1427 1429 1430 1432 1434 1436 1438 1440 1441 1443 1445 1446 1447 1449 1450 1452 1453 1455 1457 1458 1459 1461 1462 1464 1465 1466 1468 1469 1471 1472 1474 1476 1478 1481 1483 1486 1488 1490 1491 1492 1493 1494 1495 1496 1497 1498 1499 1499 1499 1499 1499 1498 1498 1497 1497 1496 1495 1494 1493 1492 1491 1490 1488 1486 1484 1482 1479 1477 1474 1471 1469 1466 1461 1456 1451 1446 1441 1436
1417 1418 1419 1420 1421 1423 1424 1426 1427 1429 1430 1432 1434 1436 1438 1439 1441 1442 1443 1445 1446 1448 1449 1451 1452 1454 1455 1456 1458 1459 1460 1462 1463 1465 1467 1469 1471 1472 1474 1476 1480 1483 1486 1488 1490 1491 1491 1492 1492 1493 1494 1495 1496 1497 1498 1498 1498 1497 1497 1496 1496 1495 1494 1493 1492 1492 1491 1490 1489 1487 1485 1483 1482 1480 1478 1475 1473 1470 1467 1464 1459 1454 1450 1445 1441
1417 1417 1418 1419 1420 1421 1423 1424 1426 1427 1429 1431 1432 1434 1436 1437 1439 1440 1441 1443 1444 1445 1447 1448 1449 1450 1452 1453 1454 1455 1457 1458 1461 1463 1466 1469 1472 1474 1475 1476 1479 1482 1484 1487 1489 1490 1490 1490 1491 1491 1493 1494 1495 1495 1496 1496 1496 1496 1495 1495 1494 1493 1492 1492 1491 1490 1490 1489 1488 1486 1484 1483 1481 1480 1478 1476 1474 1472 1470 1467 1463 1458 1454 1450 1446
1417 1417 1418 1418 1419 1420 1422 1423 1425 1426 1428 1429 1431 1432 1434 1435 1437 1438 1440 1441 1443 1444 1445 1447 1448 1449 1450 1451 1453 1453 1454 1457 1460 1463 1466 1469 1471 1474 1475 1476 1478 1480 1482 1485 1487 1489 1489 1490 1490 1490 1491 1492 1493 1493 1494 1494 1494 1494 1493 1493 1492 1492 1491 1490 1490 1489 1489 1488 1487 1485 1484 1482 1482 1480 1479 1477 1475 1473 1471 1469 1465 1462 1458 1454 1451
1417 1417 1417 1418 1419 1420 1421 1422 1424 1425 1427 1428 1429 1431 1432 1434 1435 1437 1439 1441 1442 1444 1445 1446 1448 1449 1450 1451 1452 1453 1454 1457 1460 1462 1465 1467 1469 1471 1473 1475 1477 1479 1482 1484 1486 1487 1488 1488 1489 1489 1490 1490 1491 1492 1492 1493 1493 1493 1492 1492 1491 1490 1490 1489 1489 1488 1488 1487 1485 1484 1483 1482 1482 1481 1480 1478 1477 1475 1473 1470 1467 1464 1461 1458 1455
1417 1417 1418 1418 1419 1420 1421 1422 1424 1425 1426 1427 1428 1430 1431 1433 1434 1436 1438 1440 1442 1443 1445 1446 1448 1449 1451 1452 1453 1455 1456 1458 1460 1462 1464 1466 1468 1470 1472 1473 1476 1478 1481 1483 1484 1485 1486 1487 1488 1488 1489 1489 1490 1491 1491 1492 1492 1491 1491 1490 1490 1489 1489 1488 1488 1487 1487 1486 1484 1483 1482 1482 1481 1481 1480 1479 1477 1476 1474 1472 1469 1467 1464 1461 1458
1417 1417 1417 1418 1418 1419 1420 1422 1423 1425 1426 1427 1428 1429 1431 1432 1433 1435 1437 1439 1440 1442 1444 1445 1447 1449 1452 1454 1455 1457 1458 1459 1460 1462 1464 1465 1467 1470 1472 1474 1476 1478 1481 1482 1484 1485 1485 1486 1487 1488 1488 1488 1489 1490 1490 1490 1490 1490 1490 1489 1488 1488 1487 1487 1487 1486 1486 1484 1483 1482 1482 1481 1481 1481 1480 1479 1478 1477 1475 1473 1471 1469 1466 1464 1462
1417 1417 1417 1417 1418 1419 1420 1421 1423 1425 1426 1427 1428 1429 1430 1431 1433 1435 1437 1438 1439 1441 1444 1447 1448 1450 1453 1455 1457 1458 1460 1461 1462 1463 1464 1466 1468 1471 1473 1474 1476 1478 1481 1482 1483 1484 1484 1485 1486 1487 1487 1488 1488 1488 1489 1489 1489 1488 1488 1488 1487 1487 1487 1486 1486 1485 1484 1483 1483 1482 1482 1481 1481 1480 1480 1479 1478 1477 1476 1474 1472 1471 1469 1467 1464
1418 1418 1418 1418 1418 1418 1419 1421 1422 1424 1426 1428 1429 1430 1431 1432 1434 1436 1438 1440 1442 1444 1447 1449 1450 1451 1453 1456 1458 1460 1463 1464 1464 1465 1466 1468 1470 1472 1474 1476 1477 1479 1480 1481 1482 1483 1484 1484 1485 1486 1486 1486 1487 1487 1487 1487 1487 1487 1487 1486 1486 1486 1486 1486 1485 1485 1484 1483 1482 1481 1481 1481 1480 1480 1479 1479 1478 1477 1475 1474 1472 1471 1470 1468 1466
1419 1419 1419 1419 1419 1419 1420 1420 1422 1424 1426 1428 1430 1431 1432 1433 1435 1437 1439 1441 1444 1446 1448 1452 1454 1455 1456 1458 1460 1462 1464 1465 1466 1467 1468 1470 1472 1474 1475 1476 1478 1479 1480 1480 1481 1482 1483 1483 1484 1484 1485 1485 1485 1486 1486 1485 1485 1485 1485 1486 1486 1486 1485 1485 1484 1484 1483 1482 1481 1481 1480 1480 1480 1480 1479 1478 1477 1476 1475 1474 1473 1471 1470 1469 1468
1419 1420 1420 1420 1420 1420 1421 1421 1422 1424 1426 1428 1430 1432 1433 1435 1436 1438 1440 1443 1446 1448 1451 1454 1456 1457 1458 1460 1462 1463 1464 1466 1467 1468 1470 1472 1473 1475 1476 1476 1477 1478 1479 1480 1481 1481 1482 1482 1483 1483 1484 1484 1484 1484 1484 1484 1484 1484 1484 1485 1485 1485 1485 1484 1483 1483 1482 1481 1480 1480 1479 1479 1479 1479 1478 1477 1477 1475 1474 1473 1472 1471 1470 1469 1468
1420 1421 1421 1421 1421 1422 1422 1423 1424 1425 1426 1428 1430 1433 1435 1437 1438 1440 1442 1444 1447 1449 1452 1455 1457 1458 1459 1461 1462 1464 1465 1467 1468 1469 1471 1472 1474 1475 1476 1476 1477 1478 1478 1479 1480 1480 1481 1482 1482 1482 1482 1483 1482 1483 1483 1483 1483 1484 1484 1484 1484 1484 1483 1483 1482 1481 1481 1480 1479 1479 1478 1478 1478 1478 1477 1476 1476 1475 1474 1473 1472 1471 1470 1469 1468
1421 1422 1422 1422 1423 1423 1424 1424 1425 1426 1428 1431 1433 1436 1438 1440 1442 1443 1445 1447 1448 1450 1452 1455 1458 1459 1460 1462 1463 1464 1465 1468 1469 1471 1471 1473 1474 1475 1475 1476 1476 1477 1478 1478 1479 1480 1480 1481 1481 1481 1481 1481 1481 1482 1482 1482 1483 1483 1483 1483 1483 1483 1482 1482 1481 1480 1480 1479 1478 1477 1477 1477 1477 1476 1476 1475 1474 1474 1473 1472 1471 1470 1469 1468 1467
1422 1422 1423 1424 1424 1425 1425 1426 1426 1427 1429 1431 1435 1437 1440 1442 1444 1445 1447 1448 1450 1452 1454 1456 1458 1459 1461 1462 1464 1465 1467 1469 1470 1471 1472 1472 1473 1474 1474 1475 1475 1476 1477 1478 1478 1479 1479 1480 1480 1480 1480 1481 1481 1481 1482 1482 1482 1483 1483 1483 1482 1482 1481 1481 1480 1479 1478 1477 1477 1476 1476 1476 1475 1475 1474 1474 1473 1473 1472 1471 1470 1469 1468 1467 1466
1423 1423 1424 1424 1425 1425 1426 1426 1427 1428 1429 1431 1434 1437 1439 1441 1444 1446 1448 1450 1451 1453 1455 1457 1459 1460 1461 1462 1464 1466 1467 1469 1470 1471 1471 1471 1472 1472 1473 1474 1475 1476 1476 1477 1477 1478 1478 1479 1479 1479 1479 1480 1480 1480 1481 1481 1482 1482 1482 1482 1482 1481 1480 1479 1479 1478 1477 1476 1475 1475 1475 1474 1473 1473 1472 1472 1472 1471 1470 1469 1468 1467 1466 1466 1465
1422 1423 1424 1424 1425 1425 1426 1427 1427 1429 1431 1432 1434 1437 1440 1442 1445 1447 1449 1451 1452 1454 1456 1458 1460 1461 1461 1462 1463 1465 1467 1468 1469 1469 1470 1470 1471 1472 1472 1473 1474 1475 1476 1476 1476 1477 1477 1477 1478 1478 1478 1478 1479 1479 1479 1480 1480 1480 1480 1480 1480 1479 1479 1478 1477 1476 1476 1475 1475 1474 1474 1473 1472 1471 1470 1470 1469 1469 1468 1467 1466 1465 1465 1464 1463
1421 1422 1422 1423 1424 1425 1426 1427 1428 1430 1432 1434 1435 1437 1440 1443 1445 1447 1449 1451 1453 1454 1456 1458 1460 1461 1462 1462 1463 1465 1467 1468 1468 1469 1469 1470 1471 1472 1472 1473 1474 1474 1475 1475 1475 1476 1476 1477 1477 1477 1477 1477 1478 1478 1478 1478 1478 1478 1478 1478 1478 1477 1477 1476 1476 1475 1474 1474 1474 1473 1472 1471 1471 1470 1469 1468 1467 1467 1466 1464 1463 1463 1462 1462 1461